Find OneWeb SL0148

NORAD ID: 48059 Int'l Des: 2021-025 Owner: ONEWEBN Country: UK Constellation: oneweb operational
LEOCIRCULARPOLARONEWEB_TYPE

リアルタイム位置

3D地球を読み込み中...

OneWeb SL0148について

説明を読み込み中...

次回通過

Passes for default location (London). Set your location on the main map for personalized predictions.

高度履歴

Loading altitude history...

軌道要素

1 48059U 21025T 26125.08120304 .00000243 00000-0 63168-3 0 9996
2 48059 87.8952 328.8189 0001651 106.7762 253.3548 13.13471452247956
Epoch: May 5, 2026 • Age: 17 hours

現在のステータス

高度 1221.1 km
速度 7.25 km/s
衛星直下点 71.60°N, 170.16°W
打ち上げ日 Mar 25, 2021
運用期間 5.1 years
タイプ internet

技術仕様

分類 Payload
質量 148.00 kg
乾燥質量 140.00 kg
総質量 148.00 kg
長さ 1.30 m
直径 1.00 m
スパン 5.00 m
形状 Trapezoid+2 pan
製造者 ONEWUS
バスタイプ ARROW
フェーズステータス In Orbit
所有者/国 ONEWEBN/UK

Most Searched